This is the latest recevied weather packets stored in our database for station/object K0APR. If no packets are shown the sender has not sent any weather packets the latest 10 day(s).
| Time | Temp. | Humidity | Pressure | Rain* | Wind** | Luminosity | Snow |
|---|---|---|---|---|---|---|---|
| 1777946610 | 8.89° C | 46% | 1007.7 hPa | 0 mm | - | 0 W/m² | - |
| 1777946307 | 8.89° C | 46% | 1007.4 hPa | 0 mm | - | 0 W/m² | - |
| 1777946004 | 8.89° C | 46% | 1007.7 hPa | 0 mm | - | 0 W/m² | - |
| 1777945701 | 8.89° C | 46% | 1007.4 hPa | 0 mm | - | 0 W/m² | - |
| 1777945398 | 9.44° C | 45% | 1007.4 hPa | 0 mm | - | 0 W/m² | - |
| 1777945095 | 9.44° C | 45% | 1007.4 hPa | 0 mm | - | 0 W/m² | - |
| 1777944792 | 9.44° C | 44% | 1007.4 hPa | 0 mm | - | 0 W/m² | - |
| 1777944491 | 9.44° C | 45% | 1007.4 hPa | 0 mm | - | 2 W/m² | - |
| 1777944188 | 10° C | 44% | 1007 hPa | 0 mm | - | 4 W/m² | - |
| 1777943883 | 10° C | 44% | 1007.4 hPa | 0 mm | - | 6 W/m² | - |
| 1777943581 | 10° C | 44% | 1007 hPa | 0 mm | - | 8 W/m² | - |
| 1777943276 | 10° C | 43% | 1007 hPa | 0 mm | - | 12 W/m² | - |
| 1777942972 | 10° C | 43% | 1007 hPa | 0 mm | - | 14 W/m² | - |
| 1777942669 | 10.56° C | 42% | 1006.7 hPa | 0 mm | - | 17 W/m² | - |
| 1777942366 | 10.56° C | 41% | 1006.7 hPa | 0 mm | - | 21 W/m² | - |
| 1777942063 | 10.56° C | 41% | 1006.7 hPa | 0 mm | - | 23 W/m² | - |
| 1777941759 | 10.56° C | 40% | 1006.4 hPa | 0 mm | - | 26 W/m² | - |
| 1777941457 | 11.11° C | 40% | 1006.7 hPa | 0 mm | - | 32 W/m² | - |
| 1777941154 | 11.11° C | 39% | 1006.4 hPa | 0 mm | - | 34 W/m² | - |
| 1777940851 | 11.11° C | 39% | 1006.4 hPa | 0 mm | - | 41 W/m² | - |
| 1777940548 | 11.67° C | 39% | 1006.7 hPa | 0 mm | - | 45 W/m² | - |
| 1777940245 | 11.67° C | 39% | 1006.4 hPa | 0 mm | - | 48 W/m² | - |
| 1777939943 | 11.11° C | 38% | 1006.7 hPa | 0 mm | - | 75 W/m² | - |
| 1777939640 | 11.67° C | 39% | 1006.4 hPa | 0 mm | - | 90 W/m² | - |
| 1777939338 | 11.67° C | 38% | 1006.4 hPa | 0 mm | - | 98 W/m² | - |
* Rain latest hour (hover to see other rain measurements)
** Current wind speed in m/s (hover to see current wind gust speed)